Satellite: NOAA-11 Catalog number: 19531 Epoch time: 11075.70485389 Element set: 0438 Inclination: 098.7521 deg RA of node: 164.9173 deg Eccentricity: 0.0011991 Arg of perigee: 092.3257 deg Mean anomaly: 267.9285 deg Mean motion: 14.14907573 rev/day Decay rate: 8.3e-07 rev/day^2 Epoch rev: 15967 Checksum: 336
Satellite: NOAA-12 Catalog number: 21263 Epoch time: 11075.93976769 Element set: 0948 Inclination: 098.7565 deg RA of node: 093.9273 deg Eccentricity: 0.0013360 Arg of perigee: 094.2066 deg Mean anomaly: 266.0642 deg Mean motion: 14.25691234 rev/day Decay rate: 1.48e-06 rev/day^2 Epoch rev: 03126 Checksum: 319
Satellite: MET-3/5 Catalog number: 21655 Epoch time: 11075.90805917 Element set: 0063 Inclination: 082.5555 deg RA of node: 115.9798 deg Eccentricity: 0.0014250 Arg of perigee: 032.5542 deg Mean anomaly: 327.6473 deg Mean motion: 13.17029199 rev/day Decay rate: 5.1e-07 rev/day^2 Epoch rev: 94157 Checksum: 309
Satellite: MET-2/21 Catalog number: 22782 Epoch time: 11075.91281419 Element set: 0046 Inclination: 082.5473 deg RA of node: 036.0806 deg Eccentricity: 0.0022698 Arg of perigee: 002.0924 deg Mean anomaly: 358.0326 deg Mean motion: 13.83654338 rev/day Decay rate: 7.7e-07 rev/day^2 Epoch rev: 88579 Checksum: 314
Satellite: OKEAN-4 Catalog number: 23317 Epoch time: 11076.87623114 Element set: 501 Inclination: 082.5376 deg RA of node: 098.4003 deg Eccentricity: 0.0023827 Arg of perigee: 061.6004 deg Mean anomaly: 298.7609 deg Mean motion: 14.82965713 rev/day Decay rate: 3.62e-06 rev/day^2 Epoch rev: 88701 Checksum: 299
Satellite: NOAA-14 Catalog number: 23455 Epoch time: 11075.96387130 Element set: 0437 Inclination: 098.8546 deg RA of node: 159.5084 deg Eccentricity: 0.0009355 Arg of perigee: 176.3626 deg Mean anomaly: 183.7614 deg Mean motion: 14.13809196 rev/day Decay rate: 1.0e-08 rev/day^2 Epoch rev: 83604 Checksum: 320
Satellite: NOAA-15 Catalog number: 25338 Epoch time: 11075.89627304 Element set: 0746 Inclination: 098.6485 deg RA of node: 063.3368 deg Eccentricity: 0.0010896 Arg of perigee: 006.5251 deg Mean anomaly: 353.6059 deg Mean motion: 14.24891072 rev/day Decay rate: 1.32e-06 rev/day^2 Epoch rev: 66758 Checksum: 326
Satellite: RESURS Catalog number: 25394 Epoch time: 11076.63729879 Element set: 748 Inclination: 098.3006 deg RA of node: 084.7033 deg Eccentricity: 0.0002074 Arg of perigee: 116.0935 deg Mean anomaly: 244.0458 deg Mean motion: 14.24225725 rev/day Decay rate: 2.6e-07 rev/day^2 Epoch rev: 65927 Checksum: 305
Satellite: FENGYUN1 Catalog number: 25730 Epoch time: 11075.90035076 Element set: 280 Inclination: 098.8115 deg RA of node: 039.1499 deg Eccentricity: 0.0022258 Arg of perigee: 209.3645 deg Mean anomaly: 150.6275 deg Mean motion: 14.08535167 rev/day Decay rate: 6.83e-06 rev/day^2 Epoch rev: 61007 Checksum: 293
Satellite: OKEAN-0 Catalog number: 25860 Epoch time: 11075.96094297 Element set: 0277 Inclination: 097.8731 deg RA of node: 045.0030 deg Eccentricity: 0.0000833 Arg of perigee: 046.6936 deg Mean anomaly: 313.4341 deg Mean motion: 14.73728496 rev/day Decay rate: 4.27e-06 rev/day^2 Epoch rev: 62707 Checksum: 307
Satellite: NOAA-16 Catalog number: 26536 Epoch time: 11075.92722976 Element set: 0228 Inclination: 099.1505 deg RA of node: 104.5580 deg Eccentricity: 0.0009762 Arg of perigee: 293.3829 deg Mean anomaly: 066.6311 deg Mean motion: 14.12601453 rev/day Decay rate: 3.1e-07 rev/day^2 Epoch rev: 54033 Checksum: 291
Satellite: NOAA-17 Catalog number: 27453 Epoch time: 11075.72494363 Element set: 0222 Inclination: 098.3921 deg RA of node: 119.6331 deg Eccentricity: 0.0012580 Arg of perigee: 062.8775 deg Mean anomaly: 297.3692 deg Mean motion: 14.24247030 rev/day Decay rate: 2.75e-06 rev/day^2 Epoch rev: 45349 Checksum: 308
Satellite: NOAA-18 Catalog number: 28654 Epoch time: 11075.73350433 Element set: 0704 Inclination: 098.9861 deg RA of node: 026.7009 deg Eccentricity: 0.0014579 Arg of perigee: 008.9851 deg Mean anomaly: 351.1564 deg Mean motion: 14.11446160 rev/day Decay rate: -8.5e-07 rev/day^2 Epoch rev: 29988 Checksum: 323
Satellite: NOAA-19 Catalog number: 33591 Epoch time: 11075.71027057 Element set: 0897 Inclination: 098.8193 deg RA of node: 017.4551 deg Eccentricity: 0.0013277 Arg of perigee: 236.5972 deg Mean anomaly: 123.3927 deg Mean motion: 14.11139258 rev/day Decay rate: -5.2e-07 rev/day^2 Epoch rev: 10834 Checksum: 310
/EX SB KEPS @ AMSAT $ORB11076.M Orbital Elements 11076.MISC
HR AMSAT ORBITAL ELEMENTS FOR MANNED AND MISCELLANEOUS SATELLITES FROM WA5QGD FORT WORTH,TX March 17, 2011 Send Subscribe/unsubscribe to KEPS at http://www.amsat.org/mailman/listinfo/keps BID: ORB11076.M TO ALL RADIO AMATEURS BT
Satellite: HUBBLE Catalog number: 20580 Epoch time: 11076.11330575 Element set: 727 Inclination: 028.4716 deg RA of node: 257.8493 deg Eccentricity: 0.0003299 Arg of perigee: 222.1407 deg Mean anomaly: 137.8767 deg Mean motion: 15.01216185 rev/day Decay rate: 1.442e-05 rev/day^2 Epoch rev: 94580 Checksum: 292
Satellite: ISS Catalog number: 25544 Epoch time: 11076.98360876 Element set: 21 Inclination: 051.6460 deg RA of node: 268.7443 deg Eccentricity: 0.0006148 Arg of perigee: 073.9775 deg Mean anomaly: 088.8527 deg Mean motion: 15.73024963 rev/day Decay rate: 2.9015e-04 rev/day^2 Epoch rev: 70654 Checksum: 322
Satellite: CO-58 Catalog number: 28895 Epoch time: 11076.64574452 Element set: 826 Inclination: 097.9811 deg RA of node: 316.5062 deg Eccentricity: 0.0018841 Arg of perigee: 145.3556 deg Mean anomaly: 214.8877 deg Mean motion: 14.60030317 rev/day Decay rate: 2.35e-06 rev/day^2 Epoch rev: 28688 Checksum: 336
Satellite: FALCON Catalog number: 30776 Epoch time: 11075.73354645 Element set: 43 Inclination: 035.4327 deg RA of node: 188.9868 deg Eccentricity: 0.0001274 Arg of perigee: 337.6454 deg Mean anomaly: 022.4208 deg Mean motion: 15.04235127 rev/day Decay rate: 2.137e-05 rev/day^2 Epoch rev: 22111 Checksum: 275
Satellite: MAST Catalog number: 31126 Epoch time: 11076.83669542 Element set: 109 Inclination: 097.9056 deg RA of node: 109.1892 deg Eccentricity: 0.0095702 Arg of perigee: 095.1901 deg Mean anomaly: 266.0235 deg Mean motion: 14.53690329 rev/day Decay rate: 2.06e-06 rev/day^2 Epoch rev: 20781 Checksum: 296
Satellite: CAPE1 Catalog number: 31130 Epoch time: 11076.59943428 Element set: 129 Inclination: 097.9109 deg RA of node: 105.8734 deg Eccentricity: 0.0103798 Arg of perigee: 105.2990 deg Mean anomaly: 255.9708 deg Mean motion: 14.52312354 rev/day Decay rate: 2.49e-06 rev/day^2 Epoch rev: 20734 Checksum: 303
Satellite: COMPASS Catalog number: 32787 Epoch time: 11075.66517399 Element set: 0935 Inclination: 097.8568 deg RA of node: 141.1766 deg Eccentricity: 0.0016631 Arg of perigee: 116.0311 deg Mean anomaly: 244.2614 deg Mean motion: 14.82203261 rev/day Decay rate: 8.69e-06 rev/day^2 Epoch rev: 15585 Checksum: 311
Satellite: AAUSAT2 Catalog number: 32788 Epoch time: 11076.65254524 Element set: 925 Inclination: 097.8579 deg RA of node: 142.3426 deg Eccentricity: 0.0016497 Arg of perigee: 113.9757 deg Mean anomaly: 246.2993 deg Mean motion: 14.82372843 rev/day Decay rate: 5.90e-06 rev/day^2 Epoch rev: 15601 Checksum: 334
Satellite: DO-64 Catalog number: 32789 Epoch time: 11076.82242580 Element set: 942 Inclination: 097.8662 deg RA of node: 143.3509 deg Eccentricity: 0.0016722 Arg of perigee: 112.8892 deg Mean anomaly: 247.4070 deg Mean motion: 14.82707076 rev/day Decay rate: 1.928e-05 rev/day^2 Epoch rev: 15604 Checksum: 323
Satellite: CO-66 Catalog number: 32791 Epoch time: 11075.59605798 Element set: 0928 Inclination: 097.8577 deg RA of node: 141.0765 deg Eccentricity: 0.0016909 Arg of perigee: 115.1586 deg Mean anomaly: 245.1390 deg Mean motion: 14.81933122 rev/day Decay rate: 6.41e-06 rev/day^2 Epoch rev: 15579 Checksum: 341
Satellite: RS-30 Catalog number: 32953 Epoch time: 11076.79249928 Element set: 560 Inclination: 082.4997 deg RA of node: 219.5291 deg Eccentricity: 0.0018435 Arg of perigee: 223.4775 deg Mean anomaly: 136.4856 deg Mean motion: 12.43010959 rev/day Decay rate: 1.0e-07 rev/day^2 Epoch rev: 12773 Checksum: 319
Satellite: TACSAT-3 Catalog number: 35001 Epoch time: 11076.87353316 Element set: 536 Inclination: 040.4546 deg RA of node: 006.0469 deg Eccentricity: 0.0024308 Arg of perigee: 251.2641 deg Mean anomaly: 108.5269 deg Mean motion: 15.45720155 rev/day Decay rate: 1.4681e-04 rev/day^2 Epoch rev: 10293 Checksum: 272
Satellite: PHARMSAT Catalog number: 35002 Epoch time: 11075.92562869 Element set: 0502 Inclination: 040.4737 deg RA of node: 009.2531 deg Eccentricity: 0.0026232 Arg of perigee: 250.2748 deg Mean anomaly: 109.5233 deg Mean motion: 15.45778538 rev/day Decay rate: 1.3321e-04 rev/day^2 Epoch rev: 10281 Checksum: 271
Satellite: HAWKSAT1 Catalog number: 35003 Epoch time: 11075.84735648 Element set: 0551 Inclination: 040.4600 deg RA of node: 351.7163 deg Eccentricity: 0.0025468 Arg of perigee: 273.1266 deg Mean anomaly: 086.6632 deg Mean motion: 15.54351611 rev/day Decay rate: 4.0262e-04 rev/day^2 Epoch rev: 10300 Checksum: 262
Satellite: CP6 Catalog number: 35004 Epoch time: 11075.88526919 Element set: 0552 Inclination: 040.4610 deg RA of node: 346.6004 deg Eccentricity: 0.0025570 Arg of perigee: 278.9737 deg Mean anomaly: 080.7879 deg Mean motion: 15.57206385 rev/day Decay rate: 5.3339e-04 rev/day^2 Epoch rev: 10305 Checksum: 312
Satellite: AEROCUB3 Catalog number: 35005 Epoch time: 11006.09222617 Element set: 610 Inclination: 040.4461 deg RA of node: 021.7975 deg Eccentricity: 0.0025578 Arg of perigee: 084.1677 deg Mean anomaly: 280.7191 deg Mean motion: 16.39196088 rev/day Decay rate: 1.4049365e-01 rev/day^2 Epoch rev: 9254 Checksum: 305
